Time,TemperatureF,DewpointF,PressureIn,WindDirection,WindDirectionDegrees,WindSpeedMPH,WindSpeedGustMPH,Humidity,HourlyPrecipIn,Conditions,Clouds,dailyrainin,SoftwareType,DateUTC
2013-01-19 00:00:00,33.1,32.3,30.35,NNW,338,0.0,0.0,97,0.00,,,0.00,WUHU216HW,2013-01-19 08:00:00,
2013-01-19 00:05:00,33.1,32.3,30.35,NNW,338,0.0,0.0,97,0.00,,,0.00,WUHU216HW,2013-01-19 08:05:00,
2013-01-19 00:10:00,33.2,32.4,30.35,WNW,293,0.0,0.0,97,0.00,,,0.00,WUHU216HW,2013-01-19 08:10:00,
2013-01-19 00:15:00,33.1,32.3,30.35,WNW,293,0.0,0.0,97,0.00,,,0.00,WUHU216HW,2013-01-19 08:15:00,
2013-01-19 00:21:00,33.2,32.4,30.35,WNW,293,0.0,0.0,97,0.00,,,0.00,WUHU216HW,2013-01-19 08:21:00,
2013-01-19 00:26:00,33.2,32.4,30.35,West,270,0.0,1.3,97,0.00,,,0.00,WUHU216HW,2013-01-19 08:26:00,
2013-01-19 00:31:00,33.1,32.3,30.35,West,270,0.0,1.3,97,0.00,,,0.00,WUHU216HW,2013-01-19 08:31:00,
2013-01-19 00:36:00,33.2,32.4,30.34,West,270,0.0,0.0,97,0.00,,,0.00,WUHU216HW,2013-01-19 08:36:00,
2013-01-19 00:41:00,33.2,32.4,30.34,West,270,0.0,0.0,97,0.00,,,0.00,WUHU216HW,2013-01-19 08:41:00,
2013-01-19 00:46:00,33.2,32.4,30.35,North,0,0.0,1.3,97,0.00,,,0.00,WUHU216HW,2013-01-19 08:46:00,
2013-01-19 00:51:00,33.2,32.4,30.35,North,0,1.4,1.5,97,0.00,,,0.00,WUHU216HW,2013-01-19 08:51:00,
2013-01-19 00:56:00,33.2,32.4,30.34,NNE,23,0.0,1.5,97,0.00,,,0.00,WUHU216HW,2013-01-19 08:56:00,
2013-01-19 01:01:00,33.2,32.4,30.34,North,0,1.9,2.0,97,0.00,,,0.00,WUHU216HW,2013-01-19 09:01:00,
2013-01-19 01:06:00,33.2,32.4,30.35,NNE,23,0.0,2.0,97,0.00,,,0.00,WUHU216HW,2013-01-19 09:06:00,
2013-01-19 01:11:00,33.2,32.4,30.34,NNE,23,0.0,0.0,97,0.00,,,0.00,WUHU216HW,2013-01-19 09:11:00,
2013-01-19 01:16:00,33.2,32.4,30.34,NNW,338,0.0,0.0,97,0.00,,,0.00,WUHU216HW,2013-01-19 09:16:00,
2013-01-19 01:21:00,33.2,32.4,30.34,NNW,338,0.0,0.0,97,0.00,,,0.00,WUHU216HW,2013-01-19 09:21:00,
2013-01-19 01:26:00,33.4,32.6,30.34,NW,315,0.0,0.0,97,0.00,,,0.00,WUHU216HW,2013-01-19 09:26:00,
2013-01-19 01:31:00,33.4,32.6,30.34,NW,315,0.0,0.0,97,0.00,,,0.00,WUHU216HW,2013-01-19 09:31:00,
2013-01-19 01:36:00,33.4,32.6,30.34,NW,315,0.0,0.0,97,0.00,,,0.00,WUHU216HW,2013-01-19 09:36:00,
2013-01-19 01:41:00,33.4,32.6,30.34,NW,315,0.0,0.0,97,0.00,,,0.00,WUHU216HW,2013-01-19 09:41:00,
2013-01-19 01:46:00,33.4,32.6,30.34,North,0,0.0,0.2,97,0.00,,,0.00,WUHU216HW,2013-01-19 09:46:00,
2013-01-19 01:51:00,33.4,32.6,30.34,NW,315,0.0,0.2,97,0.00,,,0.00,WUHU216HW,2013-01-19 09:51:00,
2013-01-19 01:56:00,33.6,32.8,30.35,NW,315,0.0,0.6,97,0.00,,,0.00,WUHU216HW,2013-01-19 09:56:00,
2013-01-19 02:01:00,33.6,32.8,30.35,NW,315,0.0,0.6,97,0.00,,,0.00,WUHU216HW,2013-01-19 10:01:00,
2013-01-19 02:06:00,33.6,32.8,30.35,NW,315,0.0,0.0,97,0.00,,,0.00,WUHU216HW,2013-01-19 10:06:00,
2013-01-19 02:11:00,33.6,32.8,30.35,NW,315,0.0,0.0,97,0.00,,,0.00,WUHU216HW,2013-01-19 10:11:00,
2013-01-19 02:17:00,33.6,32.8,30.35,NNE,23,2.8,2.9,97,0.00,,,0.00,WUHU216HW,2013-01-19 10:17:00,
2013-01-19 02:22:00,33.6,32.8,30.35,North,0,0.0,2.9,97,0.00,,,0.00,WUHU216HW,2013-01-19 10:22:00,
2013-01-19 02:27:00,33.6,33.1,30.36,West,270,0.0,2.9,98,0.00,,,0.00,WUHU216HW,2013-01-19 10:27:00,
2013-01-19 02:32:00,33.6,33.1,30.35,NNW,338,0.0,0.0,98,0.00,,,0.00,WUHU216HW,2013-01-19 10:32:00,
2013-01-19 02:37:00,33.6,33.1,30.35,NNE,23,0.0,0.0,98,0.00,,,0.00,WUHU216HW,2013-01-19 10:37:00,
2013-01-19 02:42:00,33.6,33.1,30.36,NNW,338,0.0,0.0,98,0.00,,,0.00,WUHU216HW,2013-01-19 10:42:00,
2013-01-19 02:47:00,33.6,33.1,30.36,North,0,0.0,0.0,98,0.00,,,0.00,WUHU216HW,2013-01-19 10:47:00,
2013-01-19 02:52:00,33.6,33.1,30.36,NNE,23,0.0,0.0,98,0.00,,,0.00,WUHU216HW,2013-01-19 10:52:00,
2013-01-19 02:57:00,33.6,33.1,30.35,North,0,0.0,0.0,98,0.00,,,0.00,WUHU216HW,2013-01-19 10:57:00,
2013-01-19 03:02:00,33.6,33.1,30.35,WSW,248,0.0,2.6,98,0.00,,,0.00,WUHU216HW,2013-01-19 11:02:00,
2013-01-19 03:07:00,33.6,33.1,30.35,WSW,248,0.0,2.6,98,0.00,,,0.00,WUHU216HW,2013-01-19 11:07:00,
2013-01-19 03:12:00,33.6,33.1,30.35,WSW,248,0.0,0.0,98,0.00,,,0.00,WUHU216HW,2013-01-19 11:12:00,
2013-01-19 03:15:00,33.6,33.1,30.35,WSW,248,0.0,0.0,98,0.00,,,0.00,WUHU216HW,2013-01-19 11:15:00,
2013-01-19 03:27:00,33.6,33.1,30.35,North,0,0.0,0.0,98,0.00,,,0.00,WUHU216HW,2013-01-19 11:27:00,
2013-01-19 03:33:00,33.6,33.1,30.35,West,270,0.0,3.3,98,0.00,,,0.00,WUHU216HW,2013-01-19 11:33:00,
2013-01-19 03:46:00,33.8,33.3,30.35,NW,315,0.0,0.0,98,0.00,,,0.00,WUHU216HW,2013-01-19 11:46:00,
2013-01-19 03:53:00,33.8,33.3,30.35,NW,315,0.0,0.0,98,0.00,,,0.00,WUHU216HW,2013-01-19 11:53:00,
2013-01-19 04:06:00,34.0,33.5,30.35,NNW,338,0.0,5.3,98,0.00,,,0.00,WUHU216HW,2013-01-19 12:06:00,
2013-01-19 04:12:00,33.8,33.3,30.35,WNW,293,0.0,5.3,98,0.00,,,0.00,WUHU216HW,2013-01-19 12:12:00,
2013-01-19 04:25:00,34.0,33.5,30.35,NW,315,0.0,0.0,98,0.00,,,0.00,WUHU216HW,2013-01-19 12:25:00,
2013-01-19 04:31:00,34.0,33.5,30.35,NNW,338,0.0,0.0,98,0.00,,,0.00,WUHU216HW,2013-01-19 12:31:00,
2013-01-19 04:38:00,34.0,33.5,30.35,WSW,248,0.0,2.0,98,0.00,,,0.00,WUHU216HW,2013-01-19 12:38:00,
2013-01-19 04:47:00,34.0,33.5,30.36,NE,45,2.5,2.9,98,0.00,,,0.00,WUHU216HW,2013-01-19 12:47:00,
2013-01-19 04:48:00,33.8,33.3,30.36,West,270,0.0,2.9,98,0.00,,,0.00,WUHU216HW,2013-01-19 12:48:00,
2013-01-19 04:53:00,33.8,33.3,30.36,North,0,0.0,2.9,98,0.00,,,0.00,WUHU216HW,2013-01-19 12:53:00,
2013-01-19 04:58:00,33.8,33.3,30.36,NNE,23,0.0,0.8,98,0.00,,,0.00,WUHU216HW,2013-01-19 12:58:00,
2013-01-19 05:03:00,33.8,33.3,30.36,NNE,23,0.0,0.0,98,0.00,,,0.00,WUHU216HW,2013-01-19 13:03:00,
2013-01-19 05:08:00,33.8,33.3,30.36,North,0,0.0,0.0,98,0.00,,,0.00,WUHU216HW,2013-01-19 13:08:00,
2013-01-19 05:13:00,33.8,33.3,30.36,North,0,0.0,0.0,98,0.00,,,0.00,WUHU216HW,2013-01-19 13:13:00,
2013-01-19 05:18:00,33.8,33.3,30.36,NNE,23,0.0,4.9,98,0.00,,,0.00,WUHU216HW,2013-01-19 13:18:00,
2013-01-19 05:23:00,33.8,33.3,30.36,NNE,23,0.0,4.9,98,0.00,,,0.00,WUHU216HW,2013-01-19 13:23:00,
2013-01-19 05:28:00,33.8,33.3,30.36,West,270,0.0,0.0,98,0.00,,,0.00,WUHU216HW,2013-01-19 13:28:00,
2013-01-19 05:33:00,33.8,33.3,30.36,WNW,293,0.0,0.0,98,0.00,,,0.00,WUHU216HW,2013-01-19 13:33:00,
2013-01-19 05:38:00,33.6,33.1,30.36,NW,315,0.0,0.0,98,0.00,,,0.00,WUHU216HW,2013-01-19 13:38:00,
2013-01-19 05:43:00,33.8,33.3,30.36,NW,315,0.0,0.0,98,0.00,,,0.00,WUHU216HW,2013-01-19 13:43:00,
2013-01-19 05:48:00,33.8,33.3,30.36,NNW,338,0.0,0.0,98,0.00,,,0.00,WUHU216HW,2013-01-19 13:48:00,
2013-01-19 05:54:00,33.8,33.3,30.37,NNW,338,0.0,0.0,98,0.00,,,0.00,WUHU216HW,2013-01-19 13:54:00,
2013-01-19 05:59:00,33.6,33.1,30.36,NNE,23,0.0,0.0,98,0.00,,,0.00,WUHU216HW,2013-01-19 13:59:00,
2013-01-19 06:04:00,33.6,33.1,30.36,NNE,23,0.0,0.0,98,0.00,,,0.00,WUHU216HW,2013-01-19 14:04:00,
2013-01-19 06:09:00,33.6,33.1,30.36,NNE,23,0.0,0.0,98,0.00,,,0.00,WUHU216HW,2013-01-19 14:09:00,
2013-01-19 06:14:00,33.6,33.1,30.36,North,0,0.0,0.0,98,0.00,,,0.00,WUHU216HW,2013-01-19 14:14:00,
2013-01-19 06:19:00,33.8,33.3,30.36,North,0,0.0,0.0,98,0.00,,,0.00,WUHU216HW,2013-01-19 14:19:00,
2013-01-19 06:24:00,33.8,33.3,30.36,WNW,293,0.0,0.0,98,0.00,,,0.00,WUHU216HW,2013-01-19 14:24:00,
2013-01-19 06:29:00,33.8,33.3,30.36,WNW,293,0.0,0.0,98,0.00,,,0.00,WUHU216HW,2013-01-19 14:29:00,
2013-01-19 06:34:00,33.8,33.3,30.36,WNW,293,0.0,0.0,98,0.00,,,0.00,WUHU216HW,2013-01-19 14:34:00,
2013-01-19 06:39:00,33.8,33.3,30.36,NNE,23,0.0,0.0,98,0.00,,,0.00,WUHU216HW,2013-01-19 14:39:00,
2013-01-19 06:44:00,33.8,33.3,30.35,ENE,68,0.0,1.5,98,0.00,,,0.00,WUHU216HW,2013-01-19 14:44:00,
2013-01-19 06:49:00,33.8,33.3,30.36,NE,45,0.0,1.5,98,0.00,,,0.00,WUHU216HW,2013-01-19 14:49:00,
2013-01-19 06:54:00,33.8,33.3,30.35,NE,45,0.0,0.0,98,0.00,,,0.00,WUHU216HW,2013-01-19 14:54:00,
2013-01-19 06:59:00,33.8,33.3,30.35,NE,45,0.0,0.0,98,0.00,,,0.00,WUHU216HW,2013-01-19 14:59:00,
2013-01-19 07:04:00,33.8,33.3,30.36,NE,45,0.0,0.0,98,0.00,,,0.00,WUHU216HW,2013-01-19 15:04:00,
2013-01-19 07:09:00,33.8,33.3,30.36,NE,45,0.0,1.7,98,0.00,,,0.00,WUHU216HW,2013-01-19 15:09:00,
2013-01-19 07:14:00,33.8,33.3,30.36,NE,45,0.0,1.7,98,0.00,,,0.00,WUHU216HW,2013-01-19 15:14:00,
2013-01-19 07:19:00,33.8,33.3,30.36,NW,315,0.0,0.0,98,0.00,,,0.00,WUHU216HW,2013-01-19 15:19:00,
2013-01-19 07:25:00,33.8,33.3,30.36,NW,315,0.0,0.0,98,0.00,,,0.00,WUHU216HW,2013-01-19 15:25:00,
2013-01-19 07:30:00,33.8,33.3,30.36,NNE,23,0.0,0.0,98,0.00,,,0.00,WUHU216HW,2013-01-19 15:30:00,
2013-01-19 07:35:00,33.8,33.3,30.36,NNE,23,0.0,0.0,98,0.00,,,0.00,WUHU216HW,2013-01-19 15:35:00,
2013-01-19 07:40:00,33.6,33.1,30.36,NE,45,0.0,2.2,98,0.00,,,0.00,WUHU216HW,2013-01-19 15:40:00,
2013-01-19 07:45:00,33.6,33.1,30.36,NE,45,0.0,2.2,98,0.00,,,0.00,WUHU216HW,2013-01-19 15:45:00,
2013-01-19 07:50:00,33.6,33.1,30.36,North,0,0.0,0.0,98,0.00,,,0.00,WUHU216HW,2013-01-19 15:50:00,
2013-01-19 07:55:00,33.8,33.3,30.36,North,0,0.0,0.0,98,0.00,,,0.00,WUHU216HW,2013-01-19 15:55:00,
2013-01-19 08:00:00,33.6,33.1,30.37,North,0,0.0,0.0,98,0.00,,,0.00,WUHU216HW,2013-01-19 16:00:00,
2013-01-19 08:05:00,33.6,32.8,30.37,North,0,0.0,0.0,97,0.00,,,0.00,WUHU216HW,2013-01-19 16:05:00,
2013-01-19 08:10:00,33.6,33.1,30.37,North,0,0.0,0.0,98,0.00,,,0.00,WUHU216HW,2013-01-19 16:10:00,
2013-01-19 08:15:00,33.6,32.8,30.38,North,0,0.0,0.0,97,0.00,,,0.00,WUHU216HW,2013-01-19 16:15:00,
2013-01-19 08:20:00,33.8,33.3,30.38,ENE,68,0.8,0.8,98,0.00,,,0.00,WUHU216HW,2013-01-19 16:20:00,
2013-01-19 08:25:00,33.6,33.1,30.38,NNE,23,0.0,0.8,98,0.00,,,0.00,WUHU216HW,2013-01-19 16:25:00,
2013-01-19 08:30:00,33.6,32.8,30.38,NE,45,0.0,2.2,97,0.00,,,0.00,WUHU216HW,2013-01-19 16:30:00,
2013-01-19 08:35:00,33.6,33.1,30.38,North,0,0.0,2.2,98,0.00,,,0.00,WUHU216HW,2013-01-19 16:35:00,
2013-01-19 08:41:00,33.6,33.1,30.38,North,0,0.0,0.0,98,0.00,,,0.00,WUHU216HW,2013-01-19 16:41:00,
2013-01-19 08:46:00,33.8,33.3,30.39,NNE,23,1.6,1.7,98,0.00,,,0.00,WUHU216HW,2013-01-19 16:46:00,
2013-01-19 08:51:00,33.6,33.0,30.39,NNE,23,0.0,1.7,98,0.00,,,0.00,WUHU216HW,2013-01-19 16:51:00,
2013-01-19 08:56:00,33.9,33.4,30.39,West,270,0.0,0.0,98,0.00,,,0.00,WUHU216HW,2013-01-19 16:56:00,
2013-01-19 09:01:00,33.9,33.1,30.39,West,270,0.0,0.0,97,0.00,,,0.00,WUHU216HW,2013-01-19 17:01:00,
2013-01-19 09:06:00,33.7,32.9,30.39,NNW,338,0.0,1.1,97,0.00,,,0.00,WUHU216HW,2013-01-19 17:06:00,
2013-01-19 09:11:00,33.9,33.1,30.39,WNW,293,0.0,1.1,97,0.00,,,0.00,WUHU216HW,2013-01-19 17:11:00,
2013-01-19 09:16:00,33.8,33.0,30.39,NNE,23,2.8,2.9,97,0.00,,,0.00,WUHU216HW,2013-01-19 17:16:00,
2013-01-19 09:21:00,33.8,33.0,30.39,NNE,23,2.8,2.9,97,0.00,,,0.00,WUHU216HW,2013-01-19 17:21:00,
2013-01-19 09:26:00,33.8,33.0,30.39,NE,45,0.0,2.9,97,0.00,,,0.00,WUHU216HW,2013-01-19 17:26:00,
2013-01-19 09:31:00,33.8,33.0,30.39,NNE,23,0.0,2.0,97,0.00,,,0.00,WUHU216HW,2013-01-19 17:31:00,
2013-01-19 09:36:00,33.8,33.0,30.39,West,270,0.0,0.0,97,0.00,,,0.00,WUHU216HW,2013-01-19 17:36:00,
2013-01-19 09:42:00,33.8,33.0,30.39,West,270,0.0,0.0,97,0.00,,,0.00,WUHU216HW,2013-01-19 17:42:00,
2013-01-19 09:47:00,34.4,33.6,30.39,NW,315,0.0,1.1,97,0.00,,,0.00,WUHU216HW,2013-01-19 17:47:00,
2013-01-19 09:52:00,34.3,33.5,30.39,NNE,23,0.0,1.1,97,0.00,,,0.00,WUHU216HW,2013-01-19 17:52:00,
2013-01-19 09:57:00,34.3,33.5,30.39,North,0,0.0,0.0,97,0.00,,,0.00,WUHU216HW,2013-01-19 17:57:00,
2013-01-19 10:02:00,34.3,33.5,30.39,NNW,338,0.0,0.0,97,0.00,,,0.00,WUHU216HW,2013-01-19 18:02:00,
2013-01-19 10:07:00,34.1,33.3,30.39,NNE,23,0.0,2.2,97,0.00,,,0.00,WUHU216HW,2013-01-19 18:07:00,
2013-01-19 10:12:00,34.2,33.4,30.39,NNW,338,0.6,2.4,97,0.00,,,0.00,WUHU216HW,2013-01-19 18:12:00,
2013-01-19 10:18:00,34.2,33.4,30.39,East,90,0.0,2.4,97,0.00,,,0.00,WUHU216HW,2013-01-19 18:18:00,
2013-01-19 10:23:00,34.2,33.4,30.39,East,90,0.0,2.0,97,0.00,,,0.00,WUHU216HW,2013-01-19 18:23:00,
2013-01-19 10:28:00,34.5,33.7,30.39,NNW,338,0.0,3.8,97,0.00,,,0.00,WUHU216HW,2013-01-19 18:28:00,
2013-01-19 10:33:00,34.4,33.6,30.39,West,270,0.0,4.0,97,0.00,,,0.00,WUHU216HW,2013-01-19 18:33:00,
2013-01-19 10:38:00,34.6,33.8,30.39,WNW,293,0.6,2.9,97,0.00,,,0.00,WUHU216HW,2013-01-19 18:38:00,
2013-01-19 10:43:00,34.4,33.6,30.39,NNW,338,2.1,3.5,97,0.00,,,0.00,WUHU216HW,2013-01-19 18:43:00,
2013-01-19 10:48:00,34.4,33.6,30.38,North,0,0.0,5.3,97,0.00,,,0.00,WUHU216HW,2013-01-19 18:48:00,
2013-01-19 10:54:00,34.7,34.0,30.39,North,0,0.0,5.3,97,0.00,,,0.00,WUHU216HW,2013-01-19 18:54:00,
2013-01-19 10:59:00,34.7,33.7,30.39,NE,45,0.0,3.5,96,0.00,,,0.00,WUHU216HW,2013-01-19 18:59:00,
2013-01-19 11:04:00,34.7,33.6,30.39,NNE,23,0.0,3.5,96,0.00,,,0.00,WUHU216HW,2013-01-19 19:04:00,
2013-01-19 11:09:00,34.9,33.8,30.38,West,270,0.0,2.6,96,0.00,,,0.00,WUHU216HW,2013-01-19 19:09:00,
2013-01-19 11:14:00,35.2,34.1,30.38,NE,45,0.8,2.6,96,0.00,,,0.00,WUHU216HW,2013-01-19 19:14:00,
2013-01-19 11:19:00,35.1,34.1,30.38,West,270,0.0,2.4,96,0.00,,,0.00,WUHU216HW,2013-01-19 19:19:00,
2013-01-19 11:25:00,35.3,34.3,30.38,WNW,293,0.0,2.2,96,0.00,,,0.00,WUHU216HW,2013-01-19 19:25:00,
2013-01-19 11:30:00,35.5,34.4,30.37,West,270,2.3,2.4,96,0.00,,,0.00,WUHU216HW,2013-01-19 19:30:00,
2013-01-19 11:35:00,35.7,34.6,30.37,WNW,293,0.0,3.5,96,0.00,,,0.00,WUHU216HW,2013-01-19 19:35:00,
2013-01-19 11:40:00,35.9,34.5,30.37,NW,315,0.0,3.5,95,0.00,,,0.00,WUHU216HW,2013-01-19 19:40:00,
2013-01-19 11:45:00,35.9,34.6,30.37,NW,315,0.0,0.0,95,0.00,,,0.00,WUHU216HW,2013-01-19 19:45:00,
2013-01-19 11:50:00,36.1,34.8,30.36,West,270,0.8,3.8,95,0.00,,,0.00,WUHU216HW,2013-01-19 19:50:00,
2013-01-19 11:56:00,36.1,34.8,30.37,West,270,2.8,3.8,95,0.00,,,0.00,WUHU216HW,2013-01-19 19:56:00,
2013-01-19 12:01:00,36.1,34.8,30.36,West,270,0.0,3.8,95,0.00,,,0.00,WUHU216HW,2013-01-19 20:01:00,
2013-01-19 12:06:00,36.3,34.9,30.36,WNW,293,0.0,3.1,95,0.00,,,0.00,WUHU216HW,2013-01-19 20:06:00,
2013-01-19 12:11:00,36.3,34.6,30.36,WNW,293,1.4,2.0,94,0.00,,,0.00,WUHU216HW,2013-01-19 20:11:00,
2013-01-19 12:16:00,35.9,34.2,30.36,NW,315,2.5,3.3,94,0.00,,,0.00,WUHU216HW,2013-01-19 20:16:00,
2013-01-19 12:21:00,36.2,34.6,30.36,NW,315,0.0,3.3,94,0.00,,,0.00,WUHU216HW,2013-01-19 20:21:00,
2013-01-19 12:27:00,36.4,34.8,30.36,West,270,0.0,2.2,94,0.00,,,0.00,WUHU216HW,2013-01-19 20:27:00,
2013-01-19 12:32:00,36.6,34.7,30.35,West,270,0.0,1.5,93,0.00,,,0.00,WUHU216HW,2013-01-19 20:32:00,
2013-01-19 12:37:00,36.7,34.8,30.35,West,270,1.0,1.1,93,0.00,,,0.00,WUHU216HW,2013-01-19 20:37:00,
2013-01-19 12:42:00,36.7,34.8,30.36,NW,315,2.5,2.6,93,0.00,,,0.00,WUHU216HW,2013-01-19 20:42:00,
2013-01-19 12:47:00,37.1,35.2,30.35,WNW,293,2.8,2.9,93,0.00,,,0.00,WUHU216HW,2013-01-19 20:47:00,
2013-01-19 12:53:00,36.9,35.0,30.35,West,270,1.9,2.9,93,0.00,,,0.00,WUHU216HW,2013-01-19 20:53:00,
2013-01-19 12:58:00,37.1,34.9,30.35,WNW,293,0.0,2.0,92,0.00,,,0.00,WUHU216HW,2013-01-19 20:58:00,
2013-01-19 13:03:00,37.0,34.9,30.35,NNW,338,4.4,4.6,92,0.00,,,0.00,WUHU216HW,2013-01-19 21:03:00,
2013-01-19 13:08:00,37.0,34.9,30.35,NW,315,0.0,4.6,92,0.00,,,0.00,WUHU216HW,2013-01-19 21:08:00,
2013-01-19 13:13:00,37.5,35.4,30.35,WSW,248,0.0,4.6,92,0.00,,,0.00,WUHU216HW,2013-01-19 21:13:00,
2013-01-19 13:18:00,37.5,35.4,30.34,WSW,248,0.0,0.0,92,0.00,,,0.00,WUHU216HW,2013-01-19 21:18:00,
2013-01-19 13:23:00,37.5,35.4,30.34,West,270,0.0,3.5,92,0.00,,,0.00,WUHU216HW,2013-01-19 21:23:00,
2013-01-19 13:28:00,37.7,35.3,30.35,NW,315,1.2,3.5,91,0.00,,,0.00,WUHU216HW,2013-01-19 21:28:00,
2013-01-19 13:33:00,37.7,35.3,30.34,West,270,1.9,3.8,91,0.00,,,0.00,WUHU216HW,2013-01-19 21:33:00,
2013-01-19 13:39:00,37.7,35.3,30.34,NW,315,0.0,3.8,91,0.00,,,0.00,WUHU216HW,2013-01-19 21:39:00,
2013-01-19 13:45:00,37.9,35.2,30.34,West,270,1.6,3.1,90,0.00,,,0.00,WUHU216HW,2013-01-19 21:45:00,
2013-01-19 13:50:00,37.7,35.0,30.34,North,0,0.0,2.9,90,0.00,,,0.00,WUHU216HW,2013-01-19 21:50:00,
2013-01-19 13:55:00,37.7,35.0,30.34,North,0,0.0,3.1,90,0.00,,,0.00,WUHU216HW,2013-01-19 21:55:00,
2013-01-19 14:01:00,37.7,35.0,30.34,WSW,248,4.2,4.4,90,0.00,,,0.00,WUHU216HW,2013-01-19 22:01:00,
2013-01-19 14:06:00,37.5,34.8,30.34,ENE,68,1.2,4.4,90,0.00,,,0.00,WUHU216HW,2013-01-19 22:06:00,
2013-01-19 14:12:00,37.5,34.8,30.34,NE,45,2.3,4.4,90,0.00,,,0.00,WUHU216HW,2013-01-19 22:12:00,
2013-01-19 14:17:00,37.5,34.8,30.34,NW,315,0.0,3.8,90,0.00,,,0.00,WUHU216HW,2013-01-19 22:17:00,
2013-01-19 14:22:00,37.5,34.8,30.34,NNW,338,0.0,2.4,90,0.00,,,0.00,WUHU216HW,2013-01-19 22:22:00,
2013-01-19 14:27:00,37.5,34.8,30.34,West,270,2.8,2.9,90,0.00,,,0.00,WUHU216HW,2013-01-19 22:27:00,
2013-01-19 14:32:00,37.5,34.8,30.34,NNE,23,6.6,6.9,90,0.00,,,0.00,WUHU216HW,2013-01-19 22:32:00,
2013-01-19 14:37:00,37.3,34.6,30.34,North,0,2.3,6.9,90,0.00,,,0.00,WUHU216HW,2013-01-19 22:37:00,
2013-01-19 14:43:00,37.3,34.6,30.34,NNW,338,2.9,3.1,90,0.00,,,0.00,WUHU216HW,2013-01-19 22:43:00,
2013-01-19 14:48:00,37.6,34.9,30.34,NE,45,1.2,3.1,90,0.00,,,0.00,WUHU216HW,2013-01-19 22:48:00,
2013-01-19 14:53:00,37.6,34.9,30.34,NW,315,0.0,1.3,90,0.00,,,0.00,WUHU216HW,2013-01-19 22:53:00,
2013-01-19 14:58:00,37.6,34.9,30.34,NNW,338,0.0,3.8,90,0.00,,,0.00,WUHU216HW,2013-01-19 22:58:00,
2013-01-19 15:03:00,37.6,34.9,30.34,NNW,338,0.0,3.8,90,0.00,,,0.00,WUHU216HW,2013-01-19 23:03:00,
2013-01-19 15:09:00,37.3,34.3,30.34,North,0,0.0,2.6,89,0.00,,,0.00,WUHU216HW,2013-01-19 23:09:00,
2013-01-19 15:14:00,37.1,34.2,30.34,NNW,338,2.3,2.6,89,0.00,,,0.00,WUHU216HW,2013-01-19 23:14:00,
2013-01-19 15:19:00,37.1,34.4,30.34,West,270,0.0,4.0,90,0.00,,,0.00,WUHU216HW,2013-01-19 23:19:00,
2013-01-19 15:24:00,37.2,34.5,30.34,NNW,338,0.0,4.0,90,0.00,,,0.00,WUHU216HW,2013-01-19 23:24:00,
2013-01-19 15:30:00,36.8,34.1,30.34,West,270,2.1,2.4,90,0.00,,,0.00,WUHU216HW,2013-01-19 23:30:00,
2013-01-19 15:35:00,36.8,34.1,30.35,NNE,23,0.0,2.6,90,0.00,,,0.00,WUHU216HW,2013-01-19 23:35:00,
2013-01-19 15:40:00,36.7,34.0,30.35,NNW,338,0.0,0.6,90,0.00,,,0.00,WUHU216HW,2013-01-19 23:40:00,
2013-01-19 15:45:00,36.5,33.8,30.35,North,0,1.6,1.7,90,0.00,,,0.00,WUHU216HW,2013-01-19 23:45:00,
2013-01-19 15:50:00,36.4,33.7,30.35,North,0,0.6,2.6,90,0.00,,,0.00,WUHU216HW,2013-01-19 23:50:00,
2013-01-19 15:56:00,36.4,33.9,30.35,NW,315,0.0,2.6,91,0.00,,,0.00,WUHU216HW,2013-01-19 23:56:00,
2013-01-19 16:01:00,36.4,34.0,30.35,West,270,0.0,2.4,91,0.00,,,0.00,WUHU216HW,2013-01-20 00:01:00,
2013-01-19 16:06:00,36.4,34.0,30.35,West,270,0.0,3.1,91,0.00,,,0.00,WUHU216HW,2013-01-20 00:06:00,
2013-01-19 16:12:00,36.4,34.0,30.35,NW,315,0.0,3.1,91,0.00,,,0.00,WUHU216HW,2013-01-20 00:12:00,
2013-01-19 16:17:00,36.5,34.0,30.35,West,270,0.0,2.0,91,0.00,,,0.00,WUHU216HW,2013-01-20 00:17:00,
2013-01-19 16:22:00,36.3,33.9,30.35,NW,315,0.0,2.0,91,0.00,,,0.00,WUHU216HW,2013-01-20 00:22:00,
2013-01-19 16:27:00,36.5,34.1,30.35,NW,315,0.8,0.8,91,0.00,,,0.00,WUHU216HW,2013-01-20 00:27:00,
2013-01-19 16:33:00,36.3,33.9,30.36,North,0,0.4,3.1,91,0.00,,,0.00,WUHU216HW,2013-01-20 00:33:00,
2013-01-19 16:38:00,36.1,33.7,30.35,North,0,0.0,2.9,91,0.00,,,0.00,WUHU216HW,2013-01-20 00:38:00,
2013-01-19 16:43:00,36.2,33.7,30.35,North,0,0.6,1.3,91,0.00,,,0.00,WUHU216HW,2013-01-20 00:43:00,
2013-01-19 16:48:00,36.1,33.9,30.35,North,0,0.0,1.3,92,0.00,,,0.00,WUHU216HW,2013-01-20 00:48:00,
2013-01-19 16:54:00,35.9,33.8,30.35,North,0,0.0,2.9,92,0.00,,,0.00,WUHU216HW,2013-01-20 00:54:00,
2013-01-19 16:59:00,35.9,33.8,30.35,North,0,0.0,1.1,92,0.00,,,0.00,WUHU216HW,2013-01-20 00:59:00,
2013-01-19 17:04:00,35.8,33.6,30.35,North,0,0.6,1.5,92,0.00,,,0.00,WUHU216HW,2013-01-20 01:04:00,
2013-01-19 17:09:00,35.6,33.5,30.35,North,0,1.0,1.5,92,0.00,,,0.00,WUHU216HW,2013-01-20 01:09:00,
2013-01-19 17:14:00,35.4,33.3,30.35,North,0,0.0,1.5,92,0.00,,,0.00,WUHU216HW,2013-01-20 01:14:00,
2013-01-19 17:19:00,35.3,33.2,30.35,North,0,0.0,0.0,92,0.00,,,0.00,WUHU216HW,2013-01-20 01:19:00,
2013-01-19 17:25:00,35.2,33.0,30.35,North,0,0.0,2.9,92,0.00,,,0.00,WUHU216HW,2013-01-20 01:25:00,
2013-01-19 17:30:00,35.0,32.9,30.35,North,0,0.0,2.9,92,0.00,,,0.00,WUHU216HW,2013-01-20 01:30:00,
2013-01-19 17:35:00,35.0,33.2,30.35,North,0,0.0,0.0,93,0.00,,,0.00,WUHU216HW,2013-01-20 01:35:00,
2013-01-19 17:40:00,35.1,33.2,30.35,North,0,0.0,0.0,93,0.00,,,0.00,WUHU216HW,2013-01-20 01:40:00,
2013-01-19 17:45:00,34.9,33.0,30.35,North,0,0.0,0.0,93,0.00,,,0.00,WUHU216HW,2013-01-20 01:45:00,
2013-01-19 17:50:00,34.9,33.0,30.35,North,0,0.0,0.0,93,0.00,,,0.00,WUHU216HW,2013-01-20 01:50:00,
2013-01-19 17:55:00,34.7,32.9,30.35,North,0,0.0,0.0,93,0.00,,,0.00,WUHU216HW,2013-01-20 01:55:00,
2013-01-19 18:00:00,34.8,32.9,30.35,North,0,0.0,0.0,93,0.00,,,0.00,WUHU216HW,2013-01-20 02:00:00,
2013-01-19 18:06:00,34.8,33.2,30.35,North,0,0.0,0.0,94,0.00,,,0.00,WUHU216HW,2013-01-20 02:06:00,
2013-01-19 18:11:00,34.5,32.9,30.35,North,0,0.0,0.0,94,0.00,,,0.00,WUHU216HW,2013-01-20 02:11:00,
2013-01-19 18:16:00,34.5,33.0,30.35,North,0,0.0,0.0,94,0.00,,,0.00,WUHU216HW,2013-01-20 02:16:00,
2013-01-19 18:21:00,34.6,33.0,30.35,North,0,0.0,0.0,94,0.00,,,0.00,WUHU216HW,2013-01-20 02:21:00,
2013-01-19 18:26:00,34.6,33.0,30.35,North,0,0.0,0.0,94,0.00,,,0.00,WUHU216HW,2013-01-20 02:26:00,
2013-01-19 18:31:00,34.4,32.8,30.36,North,0,0.0,0.0,94,0.00,,,0.00,WUHU216HW,2013-01-20 02:31:00,
2013-01-19 18:37:00,34.5,32.9,30.36,North,0,0.0,0.6,94,0.00,,,0.00,WUHU216HW,2013-01-20 02:37:00,
2013-01-19 18:42:00,34.5,32.9,30.35,North,0,0.0,0.6,94,0.00,,,0.00,WUHU216HW,2013-01-20 02:42:00,
2013-01-19 18:47:00,34.5,32.9,30.35,North,0,0.0,0.0,94,0.00,,,0.00,WUHU216HW,2013-01-20 02:47:00,
2013-01-19 18:53:00,34.5,32.9,30.35,North,0,1.4,1.5,94,0.00,,,0.00,WUHU216HW,2013-01-20 02:53:00,
2013-01-19 18:58:00,34.5,33.2,30.35,North,0,0.0,1.5,95,0.00,,,0.00,WUHU216HW,2013-01-20 02:58:00,
2013-01-19 19:03:00,34.7,33.4,30.36,North,0,0.0,0.0,95,0.00,,,0.00,WUHU216HW,2013-01-20 03:03:00,
2013-01-19 19:08:00,34.7,33.4,30.35,North,0,0.0,0.0,95,0.00,,,0.00,WUHU216HW,2013-01-20 03:08:00,
2013-01-19 19:13:00,34.7,33.4,30.36,North,0,0.0,0.0,95,0.00,,,0.00,WUHU216HW,2013-01-20 03:13:00,
2013-01-19 19:19:00,34.7,33.4,30.35,North,0,0.0,0.0,95,0.00,,,0.00,WUHU216HW,2013-01-20 03:19:00,
2013-01-19 19:24:00,34.7,33.4,30.36,NNE,23,0.0,0.0,95,0.00,,,0.00,WUHU216HW,2013-01-20 03:24:00,
2013-01-19 19:29:00,34.7,33.4,30.36,NNW,338,0.0,0.0,95,0.00,,,0.00,WUHU216HW,2013-01-20 03:29:00,
2013-01-19 19:34:00,34.7,33.4,30.36,NNW,338,0.0,4.0,95,0.00,,,0.00,WUHU216HW,2013-01-20 03:34:00,
2013-01-19 19:39:00,34.7,33.4,30.36,North,0,0.0,4.0,95,0.00,,,0.00,WUHU216HW,2013-01-20 03:39:00,
2013-01-19 19:44:00,35.0,33.7,30.37,North,0,0.0,1.7,95,0.00,,,0.00,WUHU216HW,2013-01-20 03:44:00,
2013-01-19 19:49:00,35.0,33.7,30.36,North,0,0.0,0.0,95,0.00,,,0.00,WUHU216HW,2013-01-20 03:49:00,
2013-01-19 19:55:00,35.0,33.7,30.37,North,0,0.0,0.0,95,0.00,,,0.00,WUHU216HW,2013-01-20 03:55:00,
2013-01-19 20:00:00,34.9,33.6,30.37,North,0,0.0,1.5,95,0.00,,,0.00,WUHU216HW,2013-01-20 04:00:00,
2013-01-19 20:05:00,35.0,33.7,30.37,North,0,0.0,1.5,95,0.00,,,0.00,WUHU216HW,2013-01-20 04:05:00,
2013-01-19 20:10:00,35.0,33.7,30.37,North,0,0.0,1.3,95,0.00,,,0.00,WUHU216HW,2013-01-20 04:10:00,
2013-01-19 20:15:00,35.0,33.9,30.37,NNW,338,0.0,0.0,96,0.00,,,0.00,WUHU216HW,2013-01-20 04:15:00,
2013-01-19 20:20:00,35.0,33.9,30.37,NNW,338,1.0,1.1,96,0.00,,,0.00,WUHU216HW,2013-01-20 04:20:00,
2013-01-19 20:25:00,35.0,33.9,30.37,WNW,293,0.0,1.1,96,0.00,,,0.00,WUHU216HW,2013-01-20 04:25:00,
2013-01-19 20:31:00,35.0,33.9,30.37,NW,315,0.0,0.0,96,0.00,,,0.00,WUHU216HW,2013-01-20 04:31:00,
2013-01-19 20:36:00,35.0,33.9,30.37,NW,315,0.0,0.0,96,0.00,,,0.00,WUHU216HW,2013-01-20 04:36:00,
2013-01-19 20:41:00,35.0,33.9,30.37,NW,315,0.0,0.0,96,0.00,,,0.00,WUHU216HW,2013-01-20 04:41:00,
2013-01-19 20:46:00,35.2,34.1,30.37,WNW,293,0.0,0.0,96,0.00,,,0.00,WUHU216HW,2013-01-20 04:46:00,
2013-01-19 20:51:00,35.2,34.1,30.37,WNW,293,0.0,0.0,96,0.00,,,0.00,WUHU216HW,2013-01-20 04:51:00,
2013-01-19 20:57:00,35.2,34.1,30.37,WNW,293,0.0,0.0,96,0.00,,,0.00,WUHU216HW,2013-01-20 04:57:00,
2013-01-19 21:00:00,35.2,34.1,30.37,WNW,293,0.0,0.0,96,0.00,,,0.00,WUHU216HW,2013-01-20 05:00:00,
2013-01-19 21:01:00,35.2,34.1,30.37,WNW,293,0.0,0.0,96,0.00,,,0.00,WUHU216HW,2013-01-20 05:01:00,
2013-01-19 21:03:00,35.2,34.1,30.37,WNW,293,0.0,0.0,96,0.00,,,0.00,WUHU216HW,2013-01-20 05:03:00,
2013-01-19 21:08:00,35.2,34.1,30.37,WNW,293,0.0,0.0,96,0.00,,,0.00,WUHU216HW,2013-01-20 05:08:00,
2013-01-19 21:13:00,35.4,34.3,30.37,WNW,293,0.0,0.0,96,0.00,,,0.00,WUHU216HW,2013-01-20 05:13:00,
2013-01-19 21:18:00,35.4,34.3,30.38,WNW,293,0.0,0.0,96,0.00,,,0.00,WUHU216HW,2013-01-20 05:18:00,
2013-01-19 21:23:00,35.4,34.3,30.37,WNW,293,0.0,0.0,96,0.00,,,0.00,WUHU216HW,2013-01-20 05:23:00,
2013-01-19 21:28:00,35.4,34.3,30.37,WNW,293,0.0,0.0,96,0.00,,,0.00,WUHU216HW,2013-01-20 05:28:00,
2013-01-19 21:33:00,35.4,34.3,30.37,WNW,293,0.0,0.0,96,0.00,,,0.00,WUHU216HW,2013-01-20 05:33:00,
2013-01-19 21:38:00,35.4,34.3,30.38,NW,315,0.0,0.0,96,0.00,,,0.00,WUHU216HW,2013-01-20 05:38:00,
2013-01-19 21:43:00,35.4,34.3,30.38,NW,315,0.0,0.0,96,0.00,,,0.00,WUHU216HW,2013-01-20 05:43:00,
2013-01-19 21:48:00,35.4,34.3,30.38,NW,315,0.0,0.0,96,0.00,,,0.00,WUHU216HW,2013-01-20 05:48:00,
2013-01-19 21:53:00,35.4,34.3,30.37,NW,315,0.0,0.0,96,0.00,,,0.00,WUHU216HW,2013-01-20 05:53:00,
2013-01-19 21:59:00,35.4,34.3,30.37,NW,315,0.0,0.0,96,0.00,,,0.00,WUHU216HW,2013-01-20 05:59:00,
2013-01-19 22:04:00,35.4,34.3,30.38,NW,315,0.0,0.0,96,0.00,,,0.00,WUHU216HW,2013-01-20 06:04:00,
2013-01-19 22:09:00,35.4,34.3,30.38,NNE,23,1.4,1.5,96,0.00,,,0.00,WUHU216HW,2013-01-20 06:09:00,
2013-01-19 22:14:00,35.4,34.3,30.38,NNE,23,0.0,2.0,96,0.00,,,0.00,WUHU216HW,2013-01-20 06:14:00,
2013-01-19 22:19:00,35.4,34.3,30.38,NNE,23,0.0,2.0,96,0.00,,,0.00,WUHU216HW,2013-01-20 06:19:00,
2013-01-19 22:24:00,35.4,34.3,30.38,North,0,0.0,0.0,96,0.00,,,0.00,WUHU216HW,2013-01-20 06:24:00,
2013-01-19 22:29:00,35.4,34.3,30.37,NNW,338,0.0,0.0,96,0.00,,,0.00,WUHU216HW,2013-01-20 06:29:00,
2013-01-19 22:34:00,35.4,34.3,30.38,NNW,338,0.8,2.4,96,0.00,,,0.00,WUHU216HW,2013-01-20 06:34:00,
2013-01-19 22:39:00,35.4,34.3,30.38,NW,315,0.0,2.4,96,0.00,,,0.00,WUHU216HW,2013-01-20 06:39:00,
2013-01-19 22:44:00,35.6,34.5,30.38,NW,315,0.0,1.1,96,0.00,,,0.00,WUHU216HW,2013-01-20 06:44:00,
2013-01-19 22:49:00,35.6,34.5,30.38,NW,315,0.0,0.0,96,0.00,,,0.00,WUHU216HW,2013-01-20 06:49:00,
2013-01-19 22:54:00,35.4,34.3,30.37,NW,315,0.0,0.0,96,0.00,,,0.00,WUHU216HW,2013-01-20 06:54:00,
2013-01-19 22:59:00,35.4,34.3,30.37,NW,315,0.0,0.0,96,0.00,,,0.00,WUHU216HW,2013-01-20 06:59:00,
2013-01-19 23:04:00,35.6,34.5,30.37,NW,315,0.0,0.0,96,0.00,,,0.00,WUHU216HW,2013-01-20 07:04:00,
2013-01-19 23:09:00,35.6,34.5,30.37,NNW,338,0.0,1.5,96,0.00,,,0.00,WUHU216HW,2013-01-20 07:09:00,
2013-01-19 23:14:00,35.4,34.3,30.37,North,0,3.6,3.8,96,0.00,,,0.00,WUHU216HW,2013-01-20 07:14:00,
2013-01-19 23:20:00,35.4,34.3,30.38,NE,45,0.0,3.8,96,0.00,,,0.00,WUHU216HW,2013-01-20 07:20:00,
2013-01-19 23:25:00,35.4,34.3,30.38,NE,45,0.0,2.0,96,0.00,,,0.00,WUHU216HW,2013-01-20 07:25:00,
2013-01-19 23:30:00,35.4,34.3,30.38,NE,45,0.0,0.0,96,0.00,,,0.00,WUHU216HW,2013-01-20 07:30:00,
2013-01-19 23:35:00,35.4,34.3,30.38,NE,45,0.0,0.8,96,0.00,,,0.00,WUHU216HW,2013-01-20 07:35:00,
2013-01-19 23:40:00,35.4,34.3,30.38,NE,45,0.0,0.8,96,0.00,,,0.00,WUHU216HW,2013-01-20 07:40:00,
2013-01-19 23:45:00,35.4,34.3,30.38,NNE,23,0.0,0.0,96,0.00,,,0.00,WUHU216HW,2013-01-20 07:45:00,
2013-01-19 23:50:00,35.4,34.3,30.37,NNE,23,0.0,0.0,96,0.00,,,0.00,WUHU216HW,2013-01-20 07:50:00,
2013-01-19 23:55:00,35.4,34.3,30.37,NW,315,0.0,0.0,96,0.00,,,0.00,WUHU216HW,2013-01-20 07:55:00,